�������l�o���
Date,Time,MP-1(��Sv/h),MP-2(��Sv/h),MP-3(��Sv/h),MP-4(��Sv/h),MP-5(��Sv/h),MP-6(��Sv/h),MP-7(��Sv/h),MP-8(��Sv/h),����,����(m/s),���J
2021/03/10,00:00,0.651,0.951,0.602,1.188,0.847,0.375,0.666,0.624,���쐼,2.8,��
2021/03/10,00:10,0.652,0.955,0.604,1.189,0.849,0.378,0.665,0.622,�k��,2.3,��
2021/03/10,00:20,0.650,0.956,0.600,1.191,0.847,0.376,0.666,0.622,�k�k��,2.3,��
2021/03/10,00:30,0.651,0.956,0.602,1.191,0.849,0.376,0.666,0.623,�k��,1.4,��
2021/03/10,00:40,0.652,0.955,0.602,1.191,0.850,0.377,0.665,0.625,�k,2.3,��
2021/03/10,00:50,0.648,0.953,0.604,1.192,0.847,0.378,0.665,0.621,�k,2.0,��
2021/03/10,01:00,0.650,0.953,0.602,1.190,0.848,0.377,0.665,0.622,�k�k��,2.0,��
2021/03/10,01:10,0.652,0.953,0.602,1.189,0.850,0.377,0.665,0.625,�k��,1.5,��
2021/03/10,01:20,0.650,0.952,0.603,1.192,0.847,0.377,0.664,0.622,�k�k��,2.5,��
2021/03/10,01:30,0.651,0.952,0.603,1.191,0.849,0.377,0.665,0.622,�k�k��,2.3,��
2021/03/10,01:40,0.651,0.955,0.602,1.190,0.848,0.377,0.665,0.622,��,3.7,��
2021/03/10,01:50,0.650,0.952,0.602,1.189,0.850,0.376,0.666,0.624,��,5.3,��
2021/03/10,02:00,0.649,0.951,0.604,1.192,0.849,0.377,0.667,0.623,���쐼,6.0,��
2021/03/10,02:10,0.653,0.951,0.601,1.193,0.848,0.378,0.666,0.622,��,5.2,��
2021/03/10,02:20,0.650,0.953,0.601,1.191,0.848,0.377,0.666,0.622,���쐼,5.9,��
2021/03/10,02:30,0.652,0.952,0.603,1.192,0.847,0.377,0.665,0.623,���쐼,5.8,��
2021/03/10,02:40,0.652,0.952,0.601,1.189,0.848,0.378,0.667,0.625,���쐼,4.1,��
2021/03/10,02:50,0.651,0.955,0.601,1.190,0.849,0.376,0.665,0.622,��,1.7,��
2021/03/10,03:00,0.652,0.952,0.602,1.190,0.847,0.378,0.666,0.624,���k��,1.7,��
2021/03/10,03:10,0.650,0.955,0.601,1.189,0.848,0.378,0.668,0.624,��,3.9,��
2021/03/10,03:20,0.651,0.953,0.603,1.190,0.848,0.377,0.666,0.623,��,8.6,��
2021/03/10,03:30,0.650,0.955,0.603,1.191,0.849,0.378,0.667,0.624,��,7.8,��
2021/03/10,03:40,0.652,0.952,0.603,1.190,0.848,0.377,0.668,0.623,��,8.0,��
2021/03/10,03:50,0.653,0.953,0.604,1.191,0.847,0.378,0.667,0.624,��,5.9,��
2021/03/10,04:00,0.653,0.952,0.605,1.189,0.849,0.379,0.666,0.623,���쐼,6.3,��
2021/03/10,04:10,0.652,0.953,0.604,1.192,0.849,0.377,0.668,0.624,��,7.6,��
2021/03/10,04:20,0.652,0.952,0.604,1.193,0.848,0.376,0.667,0.623,��,8.9,��
2021/03/10,04:30,0.653,0.953,0.604,1.193,0.850,0.377,0.668,0.623,��,7.2,��
2021/03/10,04:40,0.653,0.952,0.601,1.192,0.850,0.377,0.666,0.626,��,6.0,��
2021/03/10,04:50,0.654,0.954,0.603,1.192,0.848,0.377,0.667,0.624,���쐼,5.9,��
2021/03/10,05:00,0.651,0.955,0.603,1.190,0.849,0.378,0.667,0.623,��,5.9,��
2021/03/10,05:10,0.651,0.954,0.603,1.193,0.848,0.377,0.666,0.622,��,5.2,��
2021/03/10,05:20,0.651,0.953,0.604,1.192,0.849,0.377,0.665,0.624,��,3.7,��
2021/03/10,05:30,0.651,0.951,0.603,1.192,0.849,0.378,0.665,0.625,�k��,1.7,��
2021/03/10,05:40,0.653,0.952,0.604,1.192,0.848,0.379,0.667,0.622,�k��,1.5,��
2021/03/10,05:50,0.652,0.953,0.604,1.191,0.847,0.378,0.666,0.625,���쐼,1.5,��
2021/03/10,06:00,0.654,0.955,0.601,1.191,0.849,0.378,0.666,0.624,��,4.4,��
2021/03/10,06:10,0.652,0.952,0.602,1.191,0.848,0.377,0.665,0.624,��,8.0,��
2021/03/10,06:20,0.653,0.953,0.602,1.191,0.847,0.377,0.667,0.623,��,8.6,��
2021/03/10,06:30,0.652,0.953,0.602,1.190,0.849,0.377,0.668,0.623,��,10.5,��
2021/03/10,06:40,0.652,0.951,0.601,1.191,0.849,0.376,0.667,0.622,���k��,8.3,��
2021/03/10,06:50,0.652,0.952,0.603,1.193,0.850,0.378,0.667,0.623,���k��,6.5,��
2021/03/10,07:00,0.652,0.953,0.602,1.192,0.849,0.376,0.666,0.625,��,5.8,��
2021/03/10,07:10,0.652,0.953,0.601,1.190,0.850,0.377,0.664,0.624,���k��,7.6,��
2021/03/10,07:20,0.652,0.955,0.602,1.192,0.848,0.375,0.666,0.623,��,8.2,��
2021/03/10,07:30,0.652,0.955,0.602,1.192,0.851,0.376,0.667,0.623,��,8.7,��
2021/03/10,07:40,0.651,0.955,0.600,1.192,0.848,0.377,0.667,0.623,��,7.3,��
2021/03/10,07:50,0.652,0.954,0.602,1.192,0.849,0.376,0.666,0.625,���k��,9.5,��
2021/03/10,08:00,0.652,0.954,0.602,1.194,0.849,0.378,0.667,0.624,���k��,8.9,��
2021/03/10,08:10,0.653,0.955,0.603,1.192,0.851,0.378,0.668,0.622,��,3.4,��
2021/03/10,08:20,0.652,0.954,0.603,1.193,0.850,0.377,0.668,0.625,���쐼,5.4,��
2021/03/10,08:30,0.651,0.952,0.603,1.192,0.852,0.377,0.667,0.624,��,6.7,��
2021/03/10,08:40,0.653,0.951,0.602,1.194,0.847,0.378,0.666,0.623,��,6.8,��
2021/03/10,08:50,0.653,0.952,0.604,1.194,0.850,0.378,0.666,0.623,��,7.9,��
2021/03/10,09:00,0.652,0.953,0.604,1.193,0.850,0.378,0.666,0.624,��,11.8,��
2021/03/10,09:10,0.653,0.951,0.604,1.193,0.849,0.377,0.665,0.625,��,12.2,��
2021/03/10,09:20,0.652,0.950,0.603,1.194,0.849,0.375,0.666,0.624,��,12.7,��
2021/03/10,09:30,0.655,0.950,0.605,1.192,0.850,0.378,0.665,0.624,��,9.6,��
2021/03/10,09:40,0.652,0.950,0.603,1.194,0.851,0.379,0.666,0.622,��,8.7,��
2021/03/10,09:50,0.653,0.950,0.604,1.193,0.849,0.377,0.665,0.624,���k��,10.7,��
2021/03/10,10:00,0.653,0.950,0.603,1.195,0.850,0.378,0.665,0.623,��,9.3,��
2021/03/10,10:10,0.653,0.950,0.604,1.194,0.849,0.376,0.665,0.622,���쐼,7.2,��
2021/03/10,10:20,0.653,0.949,0.604,1.194,0.849,0.376,0.665,0.621,��,8.8,��
2021/03/10,10:30,0.652,0.950,0.604,1.194,0.851,0.376,0.664,0.621,��,8.1,��
2021/03/10,10:40,0.652,0.951,0.603,1.195,0.849,0.375,0.664,0.622,�k�k��,5.1,��
2021/03/10,10:50,0.652,0.950,0.604,1.197,0.850,0.375,0.664,0.623,�k�k��,5.8,��
2021/03/10,11:00,0.652,0.951,0.604,1.195,0.848,0.375,0.666,0.621,�k�k��,7.2,��
2021/03/10,11:10,0.653,0.951,0.603,1.194,0.848,0.371,0.664,0.622,�k�k��,7.6,��
2021/03/10,11:20,0.655,0.952,0.604,1.194,0.850,0.375,0.666,0.622,�k��,7.7,��
2021/03/10,11:30,0.654,0.949,0.604,1.196,0.853,0.377,0.666,0.621,�k�k��,6.9,��
2021/03/10,11:40,0.652,0.951,0.605,1.196,0.853,0.377,0.664,0.621,�k�k��,5.0,��
2021/03/10,11:50,0.654,0.953,0.603,1.196,0.853,0.379,0.665,0.622,�k��,5.9,��
2021/03/10,12:00,0.653,0.954,0.606,1.197,0.853,0.378,0.665,0.624,�k�k��,4.7,��
2021/03/10,12:10,0.654,0.956,0.604,1.196,0.854,0.378,0.666,0.622,�k��,5.5,��
2021/03/10,12:20,0.655,0.957,0.603,1.195,0.852,0.378,0.666,0.622,�k��,3.9,��
2021/03/10,12:30,0.654,0.958,0.605,1.197,0.852,0.377,0.666,0.624,�k��,6.3,��
2021/03/10,12:40,0.655,0.958,0.605,1.194,0.852,0.377,0.664,0.623,�k��,6.7,��
2021/03/10,12:50,0.653,0.960,0.604,1.195,0.850,0.379,0.667,0.623,�k�k��,7.0,��
2021/03/10,13:00,0.652,0.953,0.602,1.194,0.852,0.379,0.667,0.621,�k��,6.8,��
2021/03/10,13:10,0.653,0.954,0.603,1.195,0.849,0.378,0.665,0.623,�k��,6.5,��
2021/03/10,13:20,0.651,0.957,0.603,1.196,0.849,0.378,0.666,0.621,�k�k��,8.4,��
2021/03/10,13:30,0.652,0.953,0.603,1.196,0.849,0.378,0.667,0.622,�k��,8.5,��
2021/03/10,13:40,0.654,0.956,0.603,1.195,0.851,0.377,0.665,0.621,�k��,7.9,��
2021/03/10,13:50,0.653,0.954,0.602,1.193,0.848,0.377,0.667,0.622,�k�k��,9.0,��
2021/03/10,14:00,0.652,0.954,0.601,1.197,0.851,0.376,0.666,0.622,�k��,9.0,��
2021/03/10,14:10,0.652,0.954,0.603,1.197,0.851,0.377,0.667,0.623,�k��,9.2,��
2021/03/10,14:20,0.652,0.954,0.603,1.195,0.851,0.378,0.666,0.621,�k��,9.3,��
2021/03/10,14:30,0.653,0.954,0.603,1.196,0.851,0.377,0.667,0.622,�k��,9.9,��
2021/03/10,14:40,0.651,0.954,0.601,1.198,0.850,0.376,0.667,0.621,�k��,9.8,��
2021/03/10,14:50,0.653,0.953,0.601,1.197,0.852,0.375,0.666,0.622,�k��,9.4,��
2021/03/10,15:00,0.651,0.955,0.600,1.194,0.851,0.377,0.667,0.622,�k��,10.3,��
2021/03/10,15:10,0.650,0.958,0.602,1.197,0.851,0.375,0.665,0.621,�k��,10.3,��
2021/03/10,15:20,0.653,0.959,0.601,1.197,0.850,0.377,0.667,0.622,�k��,7.5,��
2021/03/10,15:30,0.652,0.959,0.603,1.201,0.850,0.378,0.666,0.622,�k��,9.8,��
2021/03/10,15:40,0.651,0.957,0.603,1.198,0.852,0.378,0.665,0.622,�k��,9.7,��
2021/03/10,15:50,0.651,0.958,0.602,1.197,0.852,0.378,0.666,0.621,�k��,7.5,��
2021/03/10,16:00,0.650,0.960,0.601,1.198,0.853,0.377,0.665,0.624,�k��,10.3,��
2021/03/10,16:10,0.649,0.955,0.602,1.195,0.852,0.379,0.665,0.623,�k�k��,8.3,��
2021/03/10,16:20,0.653,0.957,0.603,1.199,0.850,0.377,0.665,0.622,�k��,7.1,��
2021/03/10,16:30,0.653,0.956,0.601,1.199,0.851,0.378,0.665,0.624,�k�k��,8.9,��
2021/03/10,16:40,0.652,0.958,0.604,1.197,0.850,0.378,0.664,0.623,�k�k��,6.9,��
2021/03/10,16:50,0.653,0.959,0.602,1.197,0.851,0.377,0.664,0.625,�k��,7.9,��
2021/03/10,17:00,0.651,0.958,0.603,1.196,0.849,0.376,0.663,0.625,�k��,7.2,��
2021/03/10,17:10,0.653,0.960,0.601,1.196,0.851,0.378,0.665,0.623,�k��,6.3,��
2021/03/10,17:20,0.653,0.957,0.600,1.199,0.851,0.377,0.666,0.624,�k��,5.2,��
2021/03/10,17:30,0.652,0.958,0.603,1.198,0.848,0.377,0.664,0.623,�k��,6.9,��
2021/03/10,17:40,0.653,0.958,0.603,1.199,0.852,0.377,0.665,0.624,�k��,6.5,��
2021/03/10,17:50,0.651,0.959,0.602,1.196,0.853,0.376,0.665,0.626,���k��,7.9,��
2021/03/10,18:00,0.650,0.960,0.602,1.198,0.853,0.376,0.664,0.623,�k��,7.0,��
2021/03/10,18:10,0.650,0.956,0.603,1.196,0.854,0.377,0.665,0.623,�k��,5.3,��
2021/03/10,18:20,0.651,0.958,0.601,1.197,0.855,0.376,0.667,0.622,�k��,5.6,��
2021/03/10,18:30,0.653,0.958,0.603,1.199,0.853,0.376,0.666,0.625,�k��,6.5,��
2021/03/10,18:40,0.653,0.958,0.605,1.197,0.852,0.376,0.666,0.623,�k��,5.9,��
2021/03/10,18:50,0.650,0.958,0.601,1.197,0.853,0.376,0.667,0.624,�k��,5.8,��
2021/03/10,19:00,0.652,0.958,0.603,1.196,0.852,0.377,0.668,0.623,�k��,4.8,��
2021/03/10,19:10,0.650,0.958,0.602,1.196,0.855,0.375,0.665,0.623,�k��,5.7,��
2021/03/10,19:20,0.651,0.958,0.603,1.199,0.854,0.377,0.665,0.623,�k��,9.5,��
2021/03/10,19:30,0.649,0.958,0.603,1.199,0.855,0.376,0.667,0.623,�k��,10.3,��
2021/03/10,19:40,0.652,0.958,0.603,1.197,0.853,0.376,0.666,0.623,�k��,8.6,��
2021/03/10,19:50,0.650,0.958,0.603,1.198,0.851,0.377,0.666,0.624,�k��,8.1,��
2021/03/10,20:00,0.650,0.959,0.602,1.198,0.854,0.376,0.668,0.624,�k��,7.8,��
2021/03/10,20:10,0.650,0.960,0.604,1.198,0.855,0.375,0.665,0.624,�k��,7.7,��
2021/03/10,20:20,0.652,0.960,0.602,1.200,0.852,0.375,0.666,0.625,�k��,7.2,��
2021/03/10,20:30,0.651,0.958,0.603,1.198,0.852,0.377,0.666,0.624,�k��,9.9,��
2021/03/10,20:40,0.650,0.959,0.601,1.198,0.852,0.375,0.664,0.622,�k��,9.7,��
2021/03/10,20:50,0.653,0.959,0.602,1.199,0.852,0.376,0.666,0.623,�k��,9.1,��
2021/03/10,21:00,0.652,0.958,0.603,1.196,0.853,0.376,0.665,0.622,�k��,11.0,��
2021/03/10,21:10,0.651,0.958,0.600,1.197,0.853,0.375,0.664,0.623,�k��,9.9,��
2021/03/10,21:20,0.651,0.960,0.601,1.196,0.854,0.374,0.668,0.623,�k��,8.3,��
2021/03/10,21:30,0.649,0.960,0.600,1.198,0.852,0.376,0.665,0.623,�k��,6.4,��
2021/03/10,21:40,0.652,0.959,0.600,1.199,0.852,0.375,0.665,0.624,�k��,8.7,��
2021/03/10,21:50,0.651,0.959,0.600,1.198,0.852,0.376,0.666,0.623,�k��,8.4,��
2021/03/10,22:00,0.650,0.957,0.600,1.199,0.851,0.376,0.666,0.622,�k��,6.8,��
2021/03/10,22:10,0.652,0.957,0.601,1.197,0.853,0.374,0.666,0.624,�k��,7.4,��
2021/03/10,22:20,0.651,0.959,0.602,1.197,0.850,0.376,0.664,0.623,�k��,7.0,��
2021/03/10,22:30,0.650,0.958,0.602,1.199,0.853,0.374,0.666,0.624,�k��,5.7,��
2021/03/10,22:40,0.650,0.958,0.601,1.197,0.853,0.375,0.665,0.624,�k�k��,3.7,��
2021/03/10,22:50,0.651,0.962,0.601,1.198,0.851,0.376,0.665,0.623,�k�k��,5.3,��
2021/03/10,23:00,0.651,0.955,0.601,1.195,0.851,0.374,0.664,0.623,�k�k��,5.9,��
2021/03/10,23:10,0.652,0.961,0.602,1.197,0.852,0.375,0.664,0.622,�k��,7.8,��
2021/03/10,23:20,0.652,0.958,0.601,1.197,0.852,0.375,0.665,0.623,�k��,6.9,��
2021/03/10,23:30,0.649,0.958,0.601,1.196,0.852,0.376,0.667,0.623,�k�k��,5.2,��
2021/03/10,23:40,0.649,0.957,0.602,1.197,0.852,0.373,0.665,0.623,�k��,5.7,��
2021/03/10,23:50,0.651,0.959,0.601,1.196,0.852,0.375,0.663,0.622,�k�k��,5.8,��
